Regional Weather Roundup
Issued by NWS

Home | Current Version | Previous Version | Graphics & Text | Print | Product List | Glossary On
Versions: 1 2 3 4 5 6 7 8 9 10 11 12 13 14 15 16 17 18 19 20 21 22 23 24 25 26 27 28 29 30 31 32 33 34 35 36 37 38 39 40 41 42 43 44 45 46 47 48 49 50
000
ASUS43 KLSX 211659
RWRMO

WEATHER SUMMARY FOR MISSOURI
NATIONAL WEATHER SERVICE SPRINGFIELD MO
1200 PM CDT TUE OCT 21 2014

NOTE: "FAIR" INDICATES FEW OR NO CLOUDS BELOW 12,000 FEET WITH NO
       SIGNIFICANT WEATHER AND/OR OBSTRUCTIONS TO VISIBILITY.
       CURRENT SKY AND/OR WEATHER CONDITIONS ARE NOT AVAILABLE FOR
       CHILLICOTHE AND FARMINGTON.

MOZ001>031-035>038-043-044-053-054-211800-
...NORTHERN AND WESTERN MISSOURI...

CITY           SKY/WX    TMP DP  RH WIND       PRES   REMARKS
KANSAS CTY INT SUNNY     67  47  48 CALM      30.14F
KANSAS C DTWN  SUNNY     67  46  47 CALM      30.14S
LEE`S SUMMIT   SUNNY     68  46  45 CALM      30.14F
ST JOSEPH      SUNNY     67  32  27 CALM      30.14S
CHILLICOTHE      N/A     65  48  54 SE3       30.15S
KIRKSVILLE     SUNNY     61  46  57 E9        30.16S

$$
MOZ066>068-077>081-088>096-101>105-211800-
...SOUTHWEST MISSOURI...

CITY           SKY/WX    TMP DP  RH WIND       PRES   REMARKS
SPRINGFIELD    SUNNY     70  43  37 CALM      30.14S
JOPLIN         SUNNY     70  58  65 CALM      30.14F

$$
MOZ032>034-039>042-045>050-055>058-069>072-211800-
...CENTRAL MISSOURI...

CITY           SKY/WX    TMP DP  RH WIND       PRES   REMARKS
COLUMBIA       SUNNY     69  45  41 N8        30.14R
JEFFERSON CITY SUNNY     65  47  52 VRB3      30.14S
ROLLA          SUNNY     66  45  46 NW6       30.13S
SEDALIA        SUNNY     70  43  37 W3        30.15S
OSAGE BEACH    SUNNY     66  46  48 SW5       30.15S

$$
MOZ051-052-059>065-211800-
...EAST CENTRAL MISSOURI...

CITY           SKY/WX    TMP DP  RH WIND       PRES   REMARKS
ST LOUIS INTL  SUNNY     63  46  54 VRB6      30.15R
SPIRIT OF STL  SUNNY     63  48  58 N8        30.14S
ST CHARLES     SUNNY     63  46  54 NE9       30.14S

$$
MOZ072>076-082>087-097>100-106>115-211800-
...SOUTH CENTRAL AND SOUTHEAST MISSOURI...

CITY           SKY/WX    TMP DP  RH WIND       PRES   REMARKS
CAPE GIRARDEAU SUNNY     69  47  45 NW12      30.10S
FARMINGTON     SUNNY     66  45  45 NW9       30.14S
POPLAR BLUFF   SUNNY     72  44  36 N10       30.10
WEST PLAINS    SUNNY     68  45  43 CALM      30.15S

$$



USA.gov is the U.S. government's official web portal to all federal, state and local government web resources and services.